This is the latest recevied weather packets stored in our database for station/object M0HPP-13. If no packets are shown the sender has not sent any weather packets the latest 10 day(s).
| Time | Temp. | Humidity | Pressure | Rain* | Wind** | Luminosity | Snow |
|---|---|---|---|---|---|---|---|
| 1788305286 | 8.89° C | 95% | 1011.8 hPa | 0 mm | - | 0 W/m² | - |
| 1788304686 | 8.89° C | 96% | 1011.7 hPa | 0 mm | - | 0 W/m² | - |
| 1788304086 | 8.89° C | 96% | 1011.7 hPa | 0 mm | - | 0 W/m² | - |
| 1788303486 | 8.89° C | 96% | 1011.8 hPa | 0 mm | - | 0 W/m² | - |
| 1788302886 | 9.44° C | 96% | 1011.8 hPa | 0 mm | - | 0 W/m² | - |
| 1788302286 | 10° C | 97% | 1011.6 hPa | 0 mm | - | 0 W/m² | - |
| 1788301686 | 10° C | 97% | 1011.4 hPa | 0 mm | - | 0 W/m² | - |
| 1788301086 | 10° C | 97% | 1011.3 hPa | 0 mm | - | 0 W/m² | - |
| 1788300486 | 10.56° C | 98% | 1011.3 hPa | 0 mm | - | 0 W/m² | - |
| 1788299886 | 10.56° C | 97% | 1011.3 hPa | 0 mm | - | 0 W/m² | - |
| 1788299286 | 10.56° C | 97% | 1011.1 hPa | 0 mm | - | 0 W/m² | - |
| 1788298686 | 10.56° C | 96% | 1011 hPa | 0 mm | - | 0 W/m² | - |
| 1788298086 | 10.56° C | 96% | 1010.9 hPa | 0 mm | - | 0 W/m² | - |
| 1788297486 | 10.56° C | 95% | 1010.7 hPa | 0 mm | - | 0 W/m² | - |
| 1788296886 | 10.56° C | 94% | 1010.5 hPa | 0 mm | - | 0 W/m² | - |
| 1788296286 | 11.11° C | 90% | 1010.6 hPa | 0 mm | - | 0 W/m² | - |
| 1788295686 | 11.11° C | 84% | 1010.5 hPa | 0 mm | - | 0 W/m² | - |
| 1788295086 | 11.11° C | 82% | 1010.2 hPa | 0 mm | - | 0 W/m² | - |
| 1788294486 | 11.11° C | 81% | 1010.1 hPa | 0 mm | - | 0 W/m² | - |
| 1788293886 | 11.11° C | 80% | 1010.1 hPa | 0 mm | - | 0 W/m² | - |
| 1788293286 | 11.11° C | 80% | 1010.2 hPa | 0 mm | - | 0 W/m² | - |
| 1788292686 | 11.11° C | 80% | 1010.1 hPa | 0 mm | - | 0 W/m² | - |
| 1788292086 | 11.11° C | 79% | 1010 hPa | 0 mm | - | 0 W/m² | - |
| 1788291487 | 11.11° C | 79% | 1009.9 hPa | 0 mm | - | 1 W/m² | - |
| 1788290886 | 11.11° C | 79% | 1010 hPa | 0 mm | - | 2 W/m² | - |
* Rain latest hour (hover to see other rain measurements)
** Current wind speed in m/s (hover to see current wind gust speed)